Tracking 30074 objects as of 13-Jan-2025
HD Live streaming from Space Station
objects crossing your sky now

COSMOS 1823 DEB

Track COSMOS 1823 DEB now!
10-day predictions


NORAD ID: 39814
Int'l Code: 1987-020EN
Perigee: 1,477.5 km
Apogee: 1,524.0 km
Inclination: 73.6 °
Period: 115.8 minutes
Semi major axis: 7871 km
RCS: 0.0157 m2 (small)
Launch date: February 20, 1987
Source: Commonwealth of Independent States (former USSR) (CIS)
Launch site: PLESETSK MISSILE AND SPACE COMPLEX (PKMTR)

Note: This is SATELLITE DEBRIS
Your satellite tracking list
Your tracking list is empty




NASA's NSSDC Master Catalog

Two Line Element Set (TLE):
1 39814U 87020EN  25011.65257025  .00000078  00000-0  68636-3 0  9990
2 39814  73.6139   2.4832 0029516 222.4134 137.4630 12.43073946481237
Source of the keplerian elements: AFSPC